Location: Bieujac
(44.5398°N, 0.1549°W)
Time: 14:28:14
(UTC+00:00)

NOSS 3-3 (A) - Pass Details

Date: 25 February 2020
Orbit: 836 x 1376 km, 63.4° (Epoch: 06 April)

Event Time Altitude Azimuth Distance (km) Brightness Sun altitude
Exits shadow 03:24:08 16° 132° (SE) 2,147 5.9 -36.0°
Maximum altitude 03:26:09 19° 107° (ESE) 2,027 6.0 -35.7°
Drops below altitude 10° 03:30:21 10° 65° (ENE) 2,707 7.1 -35.0°
Sets 03:33:48 0° 49° (NE) 3,758 8.0 -34.4°
